Regional Weather Roundup
Issued by NWS Wakefield, VA

Home | Current Version | Previous Version | Text Only | Print | Product List | Glossary On
Versions: 1 2 3 4 5 6 7 8 9 10 11 12 13 14 15 16 17 18 19 20 21 22 23 24 25 26 27 28 29 30 31 32 33 34 35 36 37 38 39 40 41 42 43 44 45 46 47 48 49 50
000
ASUS41 KAKQ 250915
RWRAKQ

REGIONAL WEATHER ROUNDUP
NATIONAL WEATHER SERVICE WAKEFIELD VA
500 AM EDT MON MAY 25 2015

Note: "fair" indicates few or no clouds below 12,000 feet with no
significant weather and/or obstructions to visibility. * = Denotes
station may not report precipitation (e.g., rain,snow,etc.),
thunder or fog.

VAZ042-051-052>054-056-251000-
NORTHERN VIRGINIA

CITY           SKY/WX    TMP DP  RH WIND       PRES   REMARKS
WASH NATIONAL  PTCLDY    67  58  72 S9        30.26S
DULLES         CLEAR     63  55  75 S5        30.25S
FORT BELVOIR   CLEAR     58  56  93 CALM      30.25F
QUANTICO       CLEAR     66  56  70 SW7       30.27S
FREDERICKSBRG* CLEAR     63  58  82 CALM      30.26S
STAFFORD*      CLEAR     60  55  83 SE3       30.30S
WARRENTON      CLEAR     64  58  80 S5        30.24F
CULPEPER*      CLEAR     56  54  93 CALM      30.25F
MANASSAS*      CLEAR     61  57  88 S3        30.24F
LEESBURG*      CLEAR     61  59  94 S5        30.25F
WINCHESTER     CLEAR     63  50  63 S5        30.22F
FRONT ROYAL*   FAIR      63  54  72 S3        30.21F
LURAY*         FAIR      57  55  94 CALM      30.24F
$$

VAZ048-049-060>072-079>083-251000-
CENTRAL AND SOUTH CENTRAL VIRGINIA

CITY           SKY/WX    TMP DP  RH WIND       PRES   REMARKS
RICHMOND       CLEAR     64  56  75 S7        30.29S
CHESTERFIELD*  NOT AVBL
PETERSBURG*    CLEAR     64  57  78 S5        30.31S
HANOVER        CLEAR     64  56  75 S7        30.30S
TAPPAHANNOCK*  CLEAR     63  54  70 S5        30.30R
QUINTON*       FAIR      64  58  78 S6        30.30S
CHARLOTTSVILLE CLEAR     60  54  80 S6        30.25F
GORDONSVILLE*  FAIR      55  54  95 S3        30.26S
ORANGE*        CLEAR     59  55  88 CALM      30.27S
LOUISA*        CLEAR     63  55  77 S3        30.26S
BUMPASS*       FAIR      60  55  85 CALM      30.27S
FARMVILLE*     CLEAR     62  56  81 SW6       30.28S
CREWE*         FAIR      59  56  91 CALM      30.30S
FORT PICKETT*  FAIR      59  55  88 S13       30.31S
CHASE CITY*    FAIR      64  61  88 CALM      30.31S
CLARKSVILLE*   FAIR      59  55  88 SW3       30.30S
SOUTH HILL*    CLEAR     57  55  94 CALM      30.37S
LAWRENCEVILLE* FAIR      61  57  88 CALM      30.31S
EMPORIA*       CLEAR     57  55  94 CALM      30.34R
$$

VAZ088>098-251000-
SOUTHEAST VIRGINIA

CITY           SKY/WX    TMP DP  RH WIND       PRES   REMARKS
NORFOLK        CLEAR     61  56  83 S6        30.32S
VIRGINIA BEACH PTCLDY    64  58  80 S6        30.32S
NORFOLK NAVAL  PTCLDY    69  58  67 S7        30.33S
WEST POINT*    CLEAR     67  57  68 S6        30.32S
SALUDA*        FAIR      64  57  76 SW8       30.30R
NEWPORT NEWS   CLEAR     69  58  67 SW10      30.32R
LANGLEY AFB    CLEAR     65  58  78 SW7       30.31R
FORT EUSTIS    CLEAR     65  58  77 S6        30.30R
WILLIAMSBURG*  CLEAR     68  61  77 SW5       30.32S
HR EXEC AP*    FAIR      55  52  88 CALM      30.34S
FRANKLIN*      CLEAR     59  56  89 S3        30.33S
WAKEFIELD      FAIR      61  56  83 CALM      30.32S
$$

VAZ020-022-025-037-045-251000-
WEST CENTRAL AND SOUTHWEST VIRGINIA

CITY           SKY/WX    TMP DP  RH WIND       PRES   REMARKS
STAUNTON*      CLEAR     53  50  90 SW3       30.28S
WAYNESBORO*    FAIR      56  52  86 CALM      30.27S
HOT SPRINGS VA CLEAR     58  49  72 SW12G18   30.33F
LYNCHBURG      CLEAR     57  53  86 S6        30.31S
DANVILLE       CLEAR     57  53  86 CALM      30.32R
SOUTH BOSTON*  FAIR      60  56  85 SW5       30.31S
MARTINSVILLE   CLEAR     52  52 100 CALM      30.34S
ROANOKE        CLEAR     56  53  90 CALM      30.31S
BLACKSBURG     CLEAR     58  52  81 S3        30.35R
DUBLIN*        CLEAR     54  54 100 CALM      30.32F
MARION*        CLEAR     55  50  82 CALM      30.34R
HILLSVILLE*    CLEAR     58  54  85 S9        30.33S
RICHLANDS*     FAIR      62  51  66 S5        30.28R
WISE*          CLEAR     61  46  59 S7        30.29R
ABINGDON*      CLEAR     55  51  86 CALM      30.28R
$$

MDZ021>025-VAZ099-100-251000-
SOUTHERN MARYLAND AND THE DELMARVA PENINSULA

CITY           SKY/WX    TMP DP  RH WIND       PRES   REMARKS
PATUXENT RIVER CLEAR     66  56  70 SW8       30.27S
BAY BRIDGE APT   N/A    N/A N/A N/A S6        30.26S
LEONARDTOWN    CLEAR     64  55  72 SW6       30.29S
DOVER          CLEAR     63  63 100 S8        30.24S
GEORGETOWN     CLEAR     59  56  89 S6        30.29S
EASTON         CLEAR     66  62  85 SW5       30.31R
CAMBRIDGE      CLEAR     66  57  72 S5        30.28S
SALISBURY      CLEAR     57  55  93 S3        30.29S
OCEAN CITY     CLEAR     64  59  83 SW8       30.30S
WALLOPS ISLAND CLEAR     60  58  92 S6        30.31S
ACCOMACK*      CLEAR     63  52  67 S7        30.31R
$$

NCZ012>017-030>032-251000-
NORTH CENTRAL AND EASTERN NORTH CAROLINA

CITY           SKY/WX    TMP DP  RH WIND       PRES   REMARKS
ROANOKE RAPIDS FAIR      59  55  88 CALM      30.33R
RALEIGH        PTCLDY    64  56  75 CALM      30.33R
ELIZABETH CITY CLEAR     61  58  90 S5        30.34S
AHOSKIE*       CLEAR     56  55  94 CALM      30.33S
EDENTON*       CLEAR     65  60  83 SW3       30.34S
CURRITUCK*     CLEAR     61  58  91 CALM      30.34S
KILL DEVIL HLS CLEAR     65  58  78 CALM      30.33S
MANTEO         CLEAR     59  56  89 CALM      30.35R
CAPE HATTERAS  CLEAR     56  53  90 E3        30.34S
TARBORO*       FAIR      57  56  96 CALM      30.34S
GOLDSBORO      CLEAR     60  59  96 CALM      30.31S
WASHINGTON     CLEAR     60  58  92 CALM      30.34S
GREENVILLE     CLEAR     61  59  94 CALM      30.34S
NEW BERN       CLEAR     58  55  90 CALM      30.35S
WILMINGTON     CLEAR     60  58  92 NE5       30.31F
$$

VAZ048-251000-
ELSEWHERE

CITY           SKY/WX    TMP DP  RH WIND       PRES   REMARKS
HARRISBURG PA  PTCLDY    63  56  78 E3        30.22S
BALTIMORE      CLEAR     60  57  89 CALM      30.25S
ANNAPOLIS      CLEAR     65  57  75 CALM      30.25S
ANDREWS AFB    CLEAR     64  57  78 S9        30.25S
PHILADELPHIA   CLOUDY    64  56  75 SE6       30.27S
HENDERSON NC   CLEAR     60  55  83 S7        30.32S
GREENSBORO     CLEAR     61  55  81 S5        30.31S
ROCKY MOUNT    CLEAR     59  57  93 CALM      30.33S
$$

VAZ100-251000-
MARINE

STATION/POSITION TIME  TEMP    WIND        PRES    WAVE   SWELL
                       AIR SEA DIR/SP/G            HT/PER HT/PER
                 (UTC) (F)     (DEG/KT/KT) (MB)    (FT/S) (FT/S)
BRANDYWINE LGT   0800   64 63  230/ 13/ 15 1025.3R
CAPE MAY NJ      0800   64 67  210/  7/ 10 1025.1R
LEWES DE         0800   65 62  230/  7/ 11 1025.2R
15NM E FENWICK I 0850   61 60              1025.7R   2/ 4
OCEAN-CITY-INLET 0800   62 61  210/  9/ 10 1025.7R
WACHAPREAGUE VA  0800   66 67  230/  7/ 10 1026.4R
THOMAS POINT MD  0900   67 66  190/ 12/ 14 1025.0S
GOOSES REEF MD   0900   67 66  210/ 10/ 14 1025.7F   2/ 3
SOLOMONS ISLAND  0800      69                N/A
BISHOPS HEAD MD  0800   69 71  220/ 12/ 15 1025.1R
PINEY POINT MD   0800          240/ 12/ 14   N/A
CAMBRIDGE MD     0800   67 70  190/  3/  6 1024.9R
LEWISETTA VA     0800   67 70              1025.1R
RAPPAHANNOCK LGT 0800          210/ 14/ 15 1026.6R
STINGRAY PT      0900   68 69  220/ 14/ 16 1025.4R   1/ 2
YORK RVR RNG VA  0800   69     240/ 13/ 15 1025.5R
YORKTOWN VA      0800   67 71  220/  7/  9 1026.0R
JAMESTOWN VA     0900   66 73  220/ 10/ 12 1025.3R
DOMINION TERM VA 0800   67     220/ 10/ 12 1026.6R
KIPTOPEKE VA     0800      72  200/  8/ 12   N/A
CHES BAY BRIDGE  0800   66 67  190/ 11/ 13 1026.2R
CAPE HENRY VA    0800   65     200/  9/ 12 1025.3R
CHESAPEAKE LGHT  0800   65     200/ 15/ 15 1027.4R
WILLOUBY STN VA  0800   67     220/ 12/ 14 1027.2R
CAPE HENRY BUOY  0828      65                N/A     2/ 3
1ST LANDING BUOY 0900      67              1026.3S
CAPE CHARLES BUO 0826      66                N/A     2/ 3   2/13
OFFSHORE WE BUOY 0811      62                N/A     2/ 7   2/ 7
64NM E OF VA BCH 0850   64 62  200/  6/  6 1027.2R   1/ 8   2/ 8
DUCK PIER NC     0800   66 62  170/  5/  6 1026.3R
44100 DUCK FRF   0824      64                N/A     1/ 6
44056 DUCK FRF   0811      63                N/A     1/ 8
OREGON INLET NC  0800   65 74  130/  3/  5 1027.4R
HATTERAS NC      0800   70 75   CALM  /  1 1026.8R
DIAMOND SHLS NC  0850   73 77  160/  6/  8 1027.6R   2/ 7   2/ 7
CAPE LOOKOUT NC  0900   72     130/  8/  9 1026.8F
$$


USA.gov is the U.S. government's official web portal to all federal, state and local government web resources and services.